Location: Cossonay
(46.5833°N, 6.4167°E)
Time: 22:28:37
(UTC+00:00)

CBERS-1 - Pass Details

Date: 06 October 2020
Orbit: 770 x 777 km, 98.6° (Epoch: 22 October)

Event Time Altitude Azimuth Distance (km) Brightness Sun altitude
Rises 03:58:04 0° 356° (N) 3,260 7.4 -18.2°
Reaches altitude 10° 04:02:18 10° 322° (NW) 2,329 6.2 -17.5°
Enters shadow 04:02:55 11° 315° (NW) 2,279 6.1 -17.4°
